OBJECT E

Satellite information

Favourite Embed

Satellite Type and Status

UNKNOWNIN ORBIT

Key statistics

Satellite OBJECT E at a glance.

Uptime

210

Days in orbit

Revolutions

≈ 15.2

Per day

Orbit

SSO

Sun Synchronous Orbit

Inclination

97.4

Latest

Satellite identification and parameters

Extended collection of information and parameters for OBJECT E.

Object identification

Identified? True

Debris? False

Object name: OBJECT E

International designator: 2025-103E

Object number (NORAD): 64052

Object ID (CCSDS): 64052

Country: PEOPLES REPUBLIC OF CHINA (PRC)

Current information (Y/N): Y

RCS size: MEDIUM

Orbital parameters

Period: 94.767 minutes

Inclination: 97.398 deg

SMA: 6885.439 km

Apoapsis: 510.316 km

Periapsis: 504.292 km

RAAN: 57.2405 deg

Eccentricy: 0.00043741

Argument of periapsis: 101.1283 deg

Mean anomaly: 259.0444 deg

Mean motion: 15.1951613 rev/day

Mean motion (dot): 0.00016454 rev/day2

B* drag term: 0.00077660198 1/REarth

Two-line elements (TLE)

Creation date: Dec. 12, 2025, 10:14 a.m.

Reference frame: TEME

Reference center: EARTH

Epoch: Dec. 12, 2025, 8:16 a.m. UTC

TLE line 0: 0 OBJECT E

TLE line 1: 1 64052U 25103E 25346.34457829 .00016454 00000-0 77660-3 0 9999

TLE line 2: 2 64052 97.3980 57.2405 0004374 101.1283 259.0444 15.19516130 31691

Live tracking on map

Real-time ground track for satellite OBJECT E.

In-orbit conjunctions

There are no conjunctions computed for OBJECT E, at the moment. Check back to stay up to date, as we update our databases every day.

Go to all conjunctions

Associated space launch

6 satellites from satellite manufacturer SpaceTY, including 3 multi-spectral Earth observation satellites and 3 technology demonstration satellites for various academic institutions. * Tianyi-29 * Tianyi-34 * Tianyi-35 * Tianyi-42 * Tianyi-45 * Tianyi-46

OBJECT E was lifted into orbit during the mission ‘Zhuque-2E | 6 satellites’, on board a Zhuque-2E space rocket.

The launch took place on May 17, 2025, 4:12 a.m. from Launch Area 96.

For more information about the launch, click the button.

Launch to space Zhuque-2E | 6 satellites
Zhuque-2E | 6 satellites

Agency: N/A

Status: Launch Successful

Launch date: May 17, 2025, 4:12 a.m. UTC

Rocket: Zhuque-2E

Launch pad: Launch Area 96

Location: Jiuquan Satellite Launch Center, People's Republic of China

...

Latest news about this satellite

News about space launch
Landspace launches 6 satellites with enhanced Zhuque-2 rocket

Chinese launch startup Landspace sent six satellites into orbit Saturday with the fifth launch of its Zhuque-2 series methane-fueled rocket. The post Landspace launches 6 satellites with enhanced Zhuque-2 rocket appeared first on SpaceNews.

News about space launch
Launch Roundup: Orbital launches from five countries planned

On the heels of a busy April, activity is ramping up for May with launches… The post Launch Roundup: Orbital launches from five countries planned appeared first on NASASpaceFlight.com.


Newsletter sign-up

Weekly statistics, charts and insights to help you stay on top of the space industry.